Forecast Directory
U.S. Alerts
El Dorado Weather Logo
U.S. Radar Loop Conditions Map

U.S. Color Satellite North America Color Infrared Animated Satellite Loop

Interactive Wx Map Live U.S. Google Map Radar Thumbnail Image

US Precipitation 1 day, 24 hour precipitation map

US Temperatures US Conditions Map

US Climate Data US Conditions Map


NOAA NWS Hourly Roundups by Site
Regional Weather Roundup for Sacramento, CA
Select Site:  

000
ASUS46 KSTO 072015
RWRCA

NORTHERN AND CENTRAL CA REGIONAL WEATHER ROUNDUP
NATIONAL WEATHER SERVICE SACRAMENTO CA
1200 PM PST SUN MAR 07 2021

NOTE: FAIR INDICATES FEW OR NO CLOUDS BELOW 12,000 FEET WITH NO
SIGNIFICANT WEATHER AND/OR OBSTRUCTIONS TO VISIBILITY.

CAZ001-003-072100-
NORTHWEST AREA

CITY           SKY/WX    TMP DP  RH WIND       PRES   REMARKS
CRESCENT CITY  MOSUNNY   51  38  60 CALM      30.25S
UKIAH          SUNNY     57  37  47 CALM      30.12F
$$

CAZ006-505>513-072100-
BAY AREA

CITY           SKY/WX    TMP DP  RH WIND       PRES   REMARKS
SANTA ROSA     SUNNY     56  41  57 CALM      30.12F
SAN RAFAEL     N/A       62  MM  MM MISG
NAPA           SUNNY     59  38  45 SW5       30.12F
CONCORD        SUNNY     59  31  34 W8        30.12F
OAKLAND CITY   N/A       55  MM  MM MISG
OAKLAND        MOSUNNY   61  37  41 W12       30.14F
SAN FRAN CITY  N/A       55  MM  60 MISG
SAN FRAN ARPT  MOSUNNY   59  43  55 W18       30.14S
LIVERMORE      SUNNY     58  35  42 W8        30.11F
HAYWARD        SUNNY     57  36  45 W13       30.13F
REDWOOD CITY   N/A       58  MM  51 MISG
MOFFETT ARPT   SUNNY     57  36  44 N10       30.13F
SAN JOSE ARPT  MOSUNNY   57  32  38 W12       30.13F
$$
CAZ034-037-514>518-072100-
CENTRAL COAST

CITY           SKY/WX    TMP DP  RH WIND       PRES   REMARKS
WATSONVILLE    MOSUNNY   57  42  57 SW7       30.13F
SALINAS        MOSUNNY   60  35  39 NW10      30.11F
MONTEREY       MOSUNNY   59  41  51 NW8       30.13F
SAN LUIS OBISP PTSUNNY   63  35  35 SW3       30.05F
SANTA MARIA    PTSUNNY   59  43  55 W8        30.07F
HALF MOON BAY  FAIR      54  46  76 NW15      30.16S
$$
CAZ015-016-072100-
NORTHERN SACRAMENTO VALLEY

CITY           SKY/WX    TMP DP  RH WIND       PRES   REMARKS
REDDING        SUNNY     59  34  39 NE6       30.12F
RED BLUFF      SUNNY     61  33  35 N9        30.13F
OROVILLE       SUNNY     60  40  47 NW9       30.12F
$$
CAZ016>018-072100-
SOUTHERN SACRAMENTO VALLEY

CITY           SKY/WX    TMP DP  RH WIND       PRES   REMARKS
AUBURN         SUNNY     57  39  51 W8        30.09S
BEALE AFB      SUNNY     60  41  51 NW12      30.10F
LINCOLN        FAIR      59  41  51 NW9       30.10F
MARYSVILLE     SUNNY     60  39  45 N9        30.12F
SAC INTL ARPT  MOSUNNY   58  43  57 N10       30.11F
MATHER AIRPORT SUNNY     59  41  51 NW7       30.09F
DOWNTOWN SAC   N/A       59  MM  MM MISG
SAC EXEC ARPT  SUNNY     59  36  42 NW9       30.11F
VACAVILLE      SUNNY     62  34  35 CALM      30.12F
TRAVIS AFB     SUNNY     67  35  31 CALM      30.11F
$$
CAZ019>021-072100-
SAN JOAQUIN VALLEY

CITY           SKY/WX    TMP DP  RH WIND       PRES   REMARKS
STOCKTON       SUNNY     61  35  37 NW9       30.10F
MODESTO        MOSUNNY   59  36  42 NW12      30.09F
MERCED         MOSUNNY   62  37  39 NW13      30.08F
LEMOORE        CLOUDY    61  37  41 NW12      30.09F
FRESNO         CLOUDY    59  40  49 N3        30.09F
HANFORD        PTSUNNY   59  40  49 VRB5      30.09F
PORTERVILLE    PTSUNNY   58  39  49 VRB5      30.10S
BAKERSFIELD    CLOUDY    55  36  48 NW3       30.08F
$$
CAZ011-012-071-072100-
NORTHERN MOUNTAINS

CITY           SKY/WX    TMP DP  RH WIND       PRES   REMARKS
YREKA          MOSUNNY   47  26  44 VRB3      30.15S
MOUNT SHASTA   MOSUNNY   47  26  44 CALM      30.10F
ALTURAS        MOSUNNY   43  26  51 NW8       30.10F
$$
CAZ011-012-071-072100-
SIERRA NEVADA MTNS

CITY           SKY/WX    TMP DP  RH WIND       PRES   REMARKS
BLUE CANYON    SUNNY     46  28  49 VRB3      30.09S
TRUCKEE        SUNNY     48  21  34 CALM      30.06F
TAHOE VLY ARPT SUNNY     47  27  45 NE8       30.06F
MAMMOTH LAKES  FAIR      54  16  22 SE7       30.07F
$$


 

View Past Reports for Sacramento, CA.

Products Courtesy of NOAA-NWS
NWS Information Parsing Script by Ken True at Saratoga Weather - Script by SE Lincoln Weather.



Contact Us | Mobile
Never base any life decisions on weather information from this site or anywhere over the Internet.
Site is dedicated to our Lord & Savior Jesus Christ | Random Quotes of Jesus

Copyright © 2021 El Dorado Weather, Inc. | Site Designed By:  El Dorado Weather